• In Deutschland
  • Länderverzeichnis
  • Für 7 Tage
  • Wassertemperatur
  • Satellitenkarten
  • Wetterkarte
  • Widgets
  • user-avatar
    Anmelden

    Stündliche Wetter Saurimo

    Heute, 22 Januar, Montag

    Zeit Temperatur Niederschläge Wind Luftdruck Luftfeuchtigkeit
    00:00 +20°C° 0,4 mm 1 m/S 670 mmHg 95%
    01:00 +18°C° 0 mm 0 m/S 670 mmHg 96%
    02:00 +18°C° 0,6 mm 0 m/S 669 mmHg 96%
    03:00 +18°C° 0,6 mm 0 m/S 669 mmHg 96%
    04:00 +18°C° 0,6 mm 0 m/S 669 mmHg 96%
    05:00 +18°C° 0,6 mm 0 m/S 670 mmHg 96%
    06:00 +20°C° 0,6 mm 1 m/S 670 mmHg 96%
    07:00 +20°C° 0,6 mm 1 m/S 670 mmHg 95%
    08:00 +21°C° 0,7 mm 1 m/S 670 mmHg 93%
    09:00 +22°C° 0,7 mm 1 m/S 671 mmHg 91%
    10:00 +23°C° 0,7 mm 1 m/S 671 mmHg 89%
    11:00 +23°C° 0,5 mm 2 m/S 670 mmHg 85%
    12:00 +24°C° 0,5 mm 2 m/S 670 mmHg 82%
    13:00 +25°C° 0,5 mm 3 m/S 670 mmHg 78%
    14:00 +25°C° 0,5 mm 3 m/S 669 mmHg 79%
    15:00 +25°C° 0,5 mm 2 m/S 669 mmHg 80%
    16:00 +25°C° 0,5 mm 2 m/S 669 mmHg 81%
    17:00 +24°C° 0,5 mm 2 m/S 669 mmHg 86%
    18:00 +21°C° 0,5 mm 2 m/S 669 mmHg 91%
    19:00 +21°C° 0,5 mm 1 m/S 668 mmHg 95%
    20:00 +21°C° 0 mm 1 m/S 669 mmHg 96%
    21:00 +20°C° 0 mm 1 m/S 669 mmHg 96%
    22:00 +20°C° 0 mm 1 m/S 670 mmHg 96%
    23:00 +20°C° 0,1 mm 1 m/S 669 mmHg 96%

    Morgen, 23 Januar, Dienstag

    Zeit Temperatur Niederschläge Wind Luftdruck Luftfeuchtigkeit
    00:00 +20°C° 0,1 mm 1 m/S 669 mmHg 96%
    01:00 +20°C° 0,1 mm 1 m/S 669 mmHg 95%
    02:00 +20°C° 0,2 mm 1 m/S 669 mmHg 96%
    03:00 +20°C° 0,2 mm 1 m/S 669 mmHg 96%
    04:00 +19°C° 0,2 mm 1 m/S 668 mmHg 96%
    05:00 +18°C° 0,2 mm 0 m/S 669 mmHg 96%
    06:00 +18°C° 0,2 mm 0 m/S 669 mmHg 96%
    07:00 +18°C° 0,2 mm 0 m/S 669 mmHg 96%
    08:00 +21°C° 0,4 mm 1 m/S 670 mmHg 93%
    09:00 +22°C° 0,4 mm 1 m/S 670 mmHg 90%
    10:00 +23°C° 0,4 mm 1 m/S 670 mmHg 87%
    11:00 +24°C° 1,1 mm 2 m/S 670 mmHg 86%
    12:00 +24°C° 1,1 mm 2 m/S 669 mmHg 85%
    13:00 +25°C° 1,1 mm 3 m/S 669 mmHg 84%
    14:00 +24°C° 1,6 mm 3 m/S 668 mmHg 86%
    15:00 +24°C° 1,6 mm 2 m/S 668 mmHg 88%
    16:00 +23°C° 1,6 mm 2 m/S 668 mmHg 90%
    17:00 +21°C° 1,8 mm 2 m/S 668 mmHg 91%
    18:00 +20°C° 1,8 mm 3 m/S 668 mmHg 93%
    19:00 +19°C° 1,8 mm 3 m/S 668 mmHg 95%
    20:00 +19°C° 1,7 mm 2 m/S 669 mmHg 95%
    21:00 +19°C° 1,7 mm 2 m/S 669 mmHg 95%
    22:00 +19°C° 1,7 mm 2 m/S 670 mmHg 96%
    23:00 +19°C° 0,3 mm 1 m/S 670 mmHg 96%

    übermorgen, 24 Januar, Mittwoch

    Zeit Temperatur Niederschläge Wind Luftdruck Luftfeuchtigkeit
    00:00 +19°C° 0,3 mm 1 m/S 669 mmHg 96%
    01:00 +19°C° 0,3 mm 1 m/S 669 mmHg 96%
    02:00 +19°C° 0 mm 1 m/S 669 mmHg 97%
    03:00 +18°C° 0 mm 1 m/S 668 mmHg 97%
    04:00 +16°C° 0 mm 0 m/S 668 mmHg 97%
    05:00 +16°C° 0 mm 0 m/S 669 mmHg 96%
    06:00 +17°C° 0 mm 0 m/S 669 mmHg 95%
    07:00 +18°C° 0 mm 0 m/S 670 mmHg 94%
    08:00 +20°C° 0 mm 0 m/S 671 mmHg 85%
    09:00 +23°C° 0 mm 0 m/S 671 mmHg 75%
    10:00 +25°C° 0 mm 0 m/S 672 mmHg 66%
    11:00 +28°C° 0,1 mm 1 m/S 671 mmHg 63%
    12:00 +28°C° 0,1 mm 1 m/S 671 mmHg 60%
    13:00 +28°C° 0,1 mm 2 m/S 670 mmHg 57%
    14:00 +27°C° 0,9 mm 2 m/S 669 mmHg 66%
    15:00 +26°C° 0,9 mm 2 m/S 669 mmHg 75%
    16:00 +25°C° 0,9 mm 2 m/S 668 mmHg 84%
    17:00 +23°C° 0,6 mm 2 m/S 668 mmHg 87%
    18:00 +22°C° 0,6 mm 1 m/S 668 mmHg 91%
    19:00 +21°C° 0,6 mm 1 m/S 669 mmHg 94%
    20:00 +21°C° 0 mm 1 m/S 669 mmHg 94%
    21:00 +20°C° 0 mm 1 m/S 669 mmHg 94%
    22:00 +20°C° 0 mm 1 m/S 670 mmHg 94%
    23:00 +20°C° 0 mm 1 m/S 669 mmHg 94%

    25 Januar, Donnerstag

    Zeit Temperatur Niederschläge Wind Luftdruck Luftfeuchtigkeit
    00:00 +20°C° 0 mm 1 m/S 669 mmHg 94%
    01:00 +20°C° 0 mm 1 m/S 668 mmHg 94%
    02:00 +20°C° 0 mm 1 m/S 668 mmHg 94%
    03:00 +19°C° 0 mm 1 m/S 668 mmHg 94%
    04:00 +19°C° 0 mm 1 m/S 668 mmHg 94%
    05:00 +18°C° 0 mm 0 m/S 669 mmHg 94%
    06:00 +18°C° 0 mm 0 m/S 669 mmHg 93%
    07:00 +19°C° 0 mm 0 m/S 670 mmHg 92%
    08:00 +23°C° 0 mm 1 m/S 670 mmHg 81%
    09:00 +26°C° 0 mm 1 m/S 671 mmHg 71%
    10:00 +28°C° 0 mm 1 m/S 671 mmHg 61%
    11:00 +29°C° 0 mm 1 m/S 671 mmHg 57%
    12:00 +30°C° 0 mm 2 m/S 670 mmHg 54%
    13:00 +30°C° 0 mm 2 m/S 669 mmHg 51%
    14:00 +30°C° 0 mm 2 m/S 669 mmHg 54%
    15:00 +29°C° 0 mm 2 m/S 668 mmHg 57%
    16:00 +29°C° 0 mm 2 m/S 668 mmHg 61%
    17:00 +27°C° 0,7 mm 2 m/S 668 mmHg 70%
    18:00 +24°C° 0,7 mm 2 m/S 668 mmHg 80%
    19:00 +22°C° 0,7 mm 1 m/S 668 mmHg 89%
    20:00 +21°C° 0,4 mm 1 m/S 669 mmHg 90%
    21:00 +21°C° 0,4 mm 1 m/S 669 mmHg 92%
    22:00 +20°C° 0,4 mm 1 m/S 669 mmHg 93%
    23:00 +20°C° 0 mm 1 m/S 669 mmHg 93%

    26 Januar, Freitag

    Zeit Temperatur Niederschläge Wind Luftdruck Luftfeuchtigkeit
    00:00 +19°C° 0 mm 1 m/S 669 mmHg 94%
    01:00 +19°C° 0 mm 1 m/S 668 mmHg 94%
    02:00 +19°C° 0 mm 1 m/S 668 mmHg 95%
    03:00 +19°C° 0 mm 1 m/S 668 mmHg 95%
    04:00 +18°C° 0 mm 1 m/S 668 mmHg 95%
    05:00 +19°C° 0 mm 1 m/S 668 mmHg 93%
    06:00 +20°C° 0 mm 1 m/S 669 mmHg 92%
    07:00 +21°C° 0 mm 1 m/S 670 mmHg 90%
    08:00 +23°C° 0 mm 1 m/S 670 mmHg 81%
    09:00 +25°C° 0 mm 1 m/S 670 mmHg 71%
    10:00 +28°C° 0 mm 2 m/S 671 mmHg 62%
    11:00 +29°C° 0,1 mm 2 m/S 670 mmHg 58%
    12:00 +29°C° 0,1 mm 2 m/S 669 mmHg 55%
    13:00 +30°C° 0,1 mm 2 m/S 669 mmHg 52%
    14:00 +30°C° 0,4 mm 2 m/S 668 mmHg 58%
    15:00 +29°C° 0,4 mm 2 m/S 668 mmHg 65%
    16:00 +28°C° 0,4 mm 2 m/S 667 mmHg 71%
    17:00 +26°C° 0,3 mm 2 m/S 667 mmHg 78%
    18:00 +24°C° 0,3 mm 1 m/S 667 mmHg 84%
    19:00 +22°C° 0,3 mm 1 m/S 668 mmHg 91%
    20:00 +22°C° 0,1 mm 1 m/S 668 mmHg 91%
    21:00 +21°C° 0,1 mm 1 m/S 668 mmHg 91%
    22:00 +21°C° 0,1 mm 1 m/S 668 mmHg 91%
    23:00 +21°C° 0,1 mm 1 m/S 668 mmHg 91%

    27 Januar, Samstag

    Zeit Temperatur Niederschläge Wind Luftdruck Luftfeuchtigkeit
    00:00 +20°C° 0,1 mm 1 m/S 668 mmHg 91%
    01:00 +20°C° 0,1 mm 1 m/S 667 mmHg 92%
    02:00 +20°C° 0,1 mm 1 m/S 667 mmHg 92%
    03:00 +20°C° 0,1 mm 1 m/S 667 mmHg 93%
    04:00 +19°C° 0,1 mm 1 m/S 667 mmHg 94%
    05:00 +20°C° 0 mm 1 m/S 668 mmHg 93%
    06:00 +21°C° 0 mm 1 m/S 669 mmHg 92%
    07:00 +21°C° 0 mm 1 m/S 669 mmHg 90%
    08:00 +23°C° 0,5 mm 1 m/S 669 mmHg 85%
    09:00 +25°C° 0,5 mm 1 m/S 670 mmHg 79%
    10:00 +27°C° 0,5 mm 1 m/S 670 mmHg 74%
    11:00 +27°C° 0,7 mm 1 m/S 669 mmHg 70%
    12:00 +28°C° 0,7 mm 1 m/S 669 mmHg 65%
    13:00 +29°C° 0,7 mm 1 m/S 668 mmHg 61%
    14:00 +29°C° 0,4 mm 1 m/S 668 mmHg 63%
    15:00 +28°C° 0,4 mm 2 m/S 667 mmHg 66%
    16:00 +28°C° 0,4 mm 2 m/S 667 mmHg 68%
    17:00 +26°C° 0,8 mm 1 m/S 667 mmHg 75%
    18:00 +24°C° 0,8 mm 1 m/S 667 mmHg 82%
    19:00 +22°C° 0,8 mm 1 m/S 668 mmHg 89%
    20:00 +22°C° 0,1 mm 1 m/S 668 mmHg 90%
    21:00 +19°C° 0,1 mm 0 m/S 668 mmHg 91%
    22:00 +19°C° 0,1 mm 0 m/S 668 mmHg 92%
    23:00 +19°C° 0,6 mm 0 m/S 668 mmHg 93%
    Mehr zeigen